EN

Hourly Weather Agar

Today, 5 December, Saturday

Time Temperature Precipitation Wind Pressure Humidity
00:00 +19°C° 0 mm 2 mps 716 mmHg 28%
01:00 +19°C° 0 mm 2 mps 715 mmHg 30%
02:00 +19°C° 0 mm 1 mps 715 mmHg 31%
03:00 +19°C° 0 mm 1 mps 715 mmHg 32%
04:00 +19°C° 0 mm 1 mps 715 mmHg 33%
05:00 +18°C° 0 mm 1 mps 715 mmHg 34%
06:00 +20°C° 0 mm 1 mps 716 mmHg 33%
07:00 +21°C° 0 mm 1 mps 716 mmHg 31%
08:00 +22°C° 0 mm 1 mps 717 mmHg 29%
09:00 +25°C° 0 mm 1 mps 717 mmHg 25%
10:00 +28°C° 0 mm 1 mps 717 mmHg 21%
11:00 +31°C° 0 mm 1 mps 717 mmHg 18%
12:00 +31°C° 0 mm 1 mps 717 mmHg 16%
13:00 +32°C° 0 mm 1 mps 716 mmHg 15%
14:00 +31°C° 0 mm 0 mps 715 mmHg 13%
15:00 +29°C° 0 mm 0 mps 715 mmHg 15%
16:00 +29°C° 0 mm 1 mps 715 mmHg 17%
17:00 +27°C° 0 mm 1 mps 715 mmHg 19%
18:00 +26°C° 0 mm 1 mps 715 mmHg 21%
19:00 +24°C° 0 mm 1 mps 716 mmHg 23%
20:00 +23°C° 0 mm 1 mps 716 mmHg 25%
21:00 +22°C° 0 mm 1 mps 716 mmHg 27%
22:00 +20°C° 0 mm 2 mps 716 mmHg 29%
23:00 +20°C° 0 mm 2 mps 716 mmHg 32%

Tomorrow, 6 December, Sunday

Time Temperature Precipitation Wind Pressure Humidity
00:00 +19°C° 0 mm 2 mps 716 mmHg 32%
01:00 +19°C° 0 mm 2 mps 716 mmHg 33%
02:00 +19°C° 0 mm 2 mps 716 mmHg 33%
03:00 +19°C° 0 mm 2 mps 716 mmHg 34%
04:00 +19°C° 0 mm 1 mps 716 mmHg 34%
05:00 +19°C° 0 mm 1 mps 716 mmHg 34%
06:00 +20°C° 0 mm 1 mps 717 mmHg 33%
07:00 +21°C° 0 mm 1 mps 718 mmHg 31%
08:00 +23°C° 0 mm 1 mps 719 mmHg 29%
09:00 +25°C° 0 mm 1 mps 719 mmHg 25%
10:00 +28°C° 0 mm 1 mps 719 mmHg 21%
11:00 +31°C° 0 mm 2 mps 719 mmHg 17%
12:00 +32°C° 0 mm 1 mps 718 mmHg 16%
13:00 +32°C° 0 mm 1 mps 718 mmHg 15%
14:00 +31°C° 0 mm 0 mps 717 mmHg 14%
15:00 +31°C° 0 mm 1 mps 717 mmHg 16%
16:00 +29°C° 0 mm 1 mps 716 mmHg 18%
17:00 +28°C° 0 mm 1 mps 716 mmHg 20%
18:00 +26°C° 0 mm 1 mps 717 mmHg 22%
19:00 +24°C° 0 mm 1 mps 717 mmHg 24%
20:00 +23°C° 0 mm 1 mps 717 mmHg 26%
21:00 +22°C° 0 mm 1 mps 717 mmHg 28%
22:00 +22°C° 0 mm 1 mps 717 mmHg 29%
23:00 +21°C° 0 mm 1 mps 717 mmHg 30%

Day after tomorrow, 7 December, Monday

Time Temperature Precipitation Wind Pressure Humidity
00:00 +21°C° 0 mm 1 mps 717 mmHg 31%
01:00 +20°C° 0 mm 1 mps 717 mmHg 32%
02:00 +18°C° 0 mm 0 mps 717 mmHg 33%
03:00 +18°C° 0 mm 0 mps 717 mmHg 34%
04:00 +17°C° 0 mm 0 mps 717 mmHg 36%
05:00 +19°C° 0 mm 1 mps 717 mmHg 37%
06:00 +20°C° 0 mm 1 mps 718 mmHg 35%
07:00 +22°C° 0 mm 1 mps 719 mmHg 33%
08:00 +23°C° 0 mm 1 mps 720 mmHg 31%
09:00 +26°C° 0 mm 1 mps 720 mmHg 27%
10:00 +27°C° 0 mm 0 mps 720 mmHg 23%
11:00 +29°C° 0 mm 0 mps 720 mmHg 19%
12:00 +30°C° 0 mm 0 mps 719 mmHg 18%
13:00 +31°C° 0 mm 0 mps 719 mmHg 17%
14:00 +31°C° 0 mm 0 mps 718 mmHg 16%
15:00 +31°C° 0 mm 1 mps 718 mmHg 18%
16:00 +30°C° 0 mm 1 mps 718 mmHg 21%
17:00 +28°C° 0 mm 2 mps 717 mmHg 23%
18:00 +26°C° 0 mm 2 mps 718 mmHg 25%
19:00 +25°C° 0 mm 2 mps 718 mmHg 27%
20:00 +23°C° 0 mm 2 mps 718 mmHg 29%
21:00 +21°C° 0 mm 2 mps 718 mmHg 31%
22:00 +21°C° 0 mm 2 mps 719 mmHg 32%
23:00 +21°C° 0 mm 1 mps 719 mmHg 34%

8 December, Tuesday

Time Temperature Precipitation Wind Pressure Humidity
00:00 +20°C° 0 mm 1 mps 718 mmHg 35%
01:00 +20°C° 0 mm 1 mps 718 mmHg 36%
02:00 +20°C° 0 mm 1 mps 718 mmHg 37%
03:00 +19°C° 0 mm 1 mps 718 mmHg 38%
04:00 +19°C° 0 mm 1 mps 718 mmHg 38%
05:00 +19°C° 0 mm 1 mps 718 mmHg 39%
06:00 +19°C° 0 mm 2 mps 718 mmHg 38%
07:00 +20°C° 0 mm 2 mps 719 mmHg 37%
08:00 +21°C° 0 mm 2 mps 720 mmHg 35%
09:00 +25°C° 0 mm 2 mps 720 mmHg 31%
10:00 +27°C° 0 mm 2 mps 720 mmHg 26%
11:00 +30°C° 0 mm 2 mps 720 mmHg 22%
12:00 +31°C° 0 mm 1 mps 719 mmHg 20%
13:00 +32°C° 0 mm 1 mps 719 mmHg 19%
14:00 +31°C° 0 mm 0 mps 718 mmHg 17%
15:00 +31°C° 0 mm 1 mps 718 mmHg 20%
16:00 +29°C° 0 mm 1 mps 718 mmHg 22%
17:00 +28°C° 0 mm 1 mps 717 mmHg 24%
18:00 +26°C° 0 mm 2 mps 717 mmHg 26%
19:00 +25°C° 0 mm 2 mps 718 mmHg 28%
20:00 +23°C° 0 mm 2 mps 718 mmHg 30%
21:00 +23°C° 0 mm 2 mps 718 mmHg 31%
22:00 +21°C° 0 mm 2 mps 718 mmHg 32%
23:00 +20°C° 0 mm 2 mps 718 mmHg 33%

9 December, Wednesday

Time Temperature Precipitation Wind Pressure Humidity
00:00 +19°C° 0 mm 2 mps 717 mmHg 34%
01:00 +20°C° 0 mm 1 mps 717 mmHg 35%
02:00 +19°C° 0 mm 1 mps 717 mmHg 36%
03:00 +19°C° 0 mm 1 mps 717 mmHg 36%
04:00 +19°C° 0 mm 1 mps 717 mmHg 37%
05:00 +18°C° 0 mm 2 mps 717 mmHg 37%
06:00 +19°C° 0 mm 2 mps 717 mmHg 36%
07:00 +20°C° 0 mm 2 mps 718 mmHg 35%
08:00 +21°C° 0 mm 2 mps 719 mmHg 33%
09:00 +25°C° 0 mm 2 mps 719 mmHg 29%
10:00 +28°C° 0 mm 2 mps 719 mmHg 25%
11:00 +30°C° 0 mm 2 mps 719 mmHg 22%
12:00 +31°C° 0 mm 1 mps 718 mmHg 20%
13:00 +32°C° 0 mm 1 mps 718 mmHg 19%
14:00 +30°C° 0 mm 0 mps 717 mmHg 18%
15:00 +30°C° 0 mm 1 mps 716 mmHg 20%
16:00 +29°C° 0 mm 1 mps 716 mmHg 22%
17:00 +27°C° 0 mm 1 mps 716 mmHg 24%
18:00 +26°C° 0 mm 1 mps 716 mmHg 27%
19:00 +24°C° 0 mm 2 mps 716 mmHg 29%
20:00 +23°C° 0 mm 2 mps 716 mmHg 32%
21:00 +21°C° 0 mm 2 mps 716 mmHg 34%
22:00 +21°C° 0 mm 1 mps 716 mmHg 37%
23:00 +21°C° 0 mm 1 mps 716 mmHg 40%

10 December, Thursday

Time Temperature Precipitation Wind Pressure Humidity
00:00 +20°C° 0 mm 1 mps 716 mmHg 40%
01:00 +20°C° 0 mm 1 mps 716 mmHg 41%
02:00 +20°C° 0 mm 1 mps 715 mmHg 42%
03:00 +20°C° 0 mm 1 mps 715 mmHg 42%
04:00 +19°C° 0 mm 1 mps 715 mmHg 42%
05:00 +19°C° 0 mm 1 mps 715 mmHg 42%
06:00 +20°C° 0 mm 1 mps 716 mmHg 40%
07:00 +22°C° 0 mm 1 mps 717 mmHg 37%
08:00 +23°C° 0 mm 1 mps 717 mmHg 35%
09:00 +25°C° 0 mm 1 mps 717 mmHg 31%
10:00 +28°C° 0 mm 1 mps 718 mmHg 27%
11:00 +30°C° 0 mm 1 mps 718 mmHg 23%
12:00 +31°C° 0 mm 1 mps 717 mmHg 22%
13:00 +31°C° 0 mm 1 mps 716 mmHg 20%
14:00 +32°C° 0 mm 1 mps 716 mmHg 18%
15:00 +30°C° 0 mm 1 mps 715 mmHg 21%
16:00 +29°C° 0 mm 1 mps 715 mmHg 23%
17:00 +27°C° 0 mm 1 mps 715 mmHg 25%
18:00 +26°C° 0 mm 1 mps 715 mmHg 26%
19:00 +25°C° 0 mm 1 mps 715 mmHg 28%
20:00 +23°C° 0 mm 2 mps 716 mmHg 30%
21:00 +23°C° 0 mm 2 mps 716 mmHg 32%
22:00 +22°C° 0 mm 1 mps 716 mmHg 34%
23:00 +21°C° 0 mm 1 mps 716 mmHg 36%
Show more

We Need Your Consent

Meteoprog and our Service Providers may store and access personal data such as cookies, device identifiers or other similar technologies on your device and process such data to personalise content and ads, as well as provide social media features and to analyse the traffic.

  • Store and/or access information on your device

    Cookies, device identifiers or other information can be stored or accessed on your device for the purposes indicated above.

  • Personalised ads and content, ad and content measurement, audience insights, and products development

    Ads and content can be personalised based on a profile. More data can be added to better personalise ads and content. Ad and content performance can be measured. Insights about the audience who saw the ads and content can be derived. Such data can be used to develop or improve user’s experience, systems and software.

By clicking ‘I Agree’ you will allow the use of indicated cookies, device identifiers, web beacons or other similar technologies. Your settings can be changed in the browser on your device.

For certain purposes, legitimate interests may be relied on, rather than consent. You can read more about this in our Privacy and Cookie Policy.